Regional Weather Roundup
Issued by NWS Kansas City/Pleasant Hill, MO

Home | Current Version | Previous Version | Graphics & Text | Print | Product List | Glossary Off
Versions: 1 2 3 4 5 6 7 8 9 10 11 12 13 14 15 16 17 18 19 20 21 22 23 24 25 26 27 28 29 30 31 32 33 34 35 36 37 38 39 40 41 42 43 44 45 46 47 48 49 50

000
ASUS43 KEAX 231210
RWREAX

WEATHER ROUNDUP FOR EASTERN KANSAS AND NORTHWEST MISSOURI
NATIONAL WEATHER SERVICE KANSAS CITY/PLEASANT HILL MO
700 AM CDT WED AUG 23 2017

KSZ040-057-103>105-MOZ028-029-037-043-231300-
...KANSAS CITY METROPOLITAN AREA...

CITY           SKY/WX    TMP DP  RH WIND       PRES   REMARKS
K.C. INTL      PTCLDY    56  52  86 N5        30.16S
6HR MIN TEMP:  56; 6HR MAX TEMP:  61;

K.C. DOWNTOWN  CLEAR     60  58  92 CALM      30.15S
6HR MIN TEMP:  59; 6HR MAX TEMP:  64;

LEES SUMMIT    CLEAR     55  55 100 MISG      30.16S
6HR MIN TEMP:  55; 6HR MAX TEMP:  62;

OLATHE - IXD   CLEAR     57  54  89 CALM      30.17S
6HR MIN TEMP:  55; 6HR MAX TEMP:  59;

OLATHE - OJC   CLEAR     57  53  86 NE3       30.16S
6HR MIN TEMP:  54; 6HR MAX TEMP:  63;

LAWRENCE       CLEAR     54  54 100 CALM      30.17R

$$

MOZ001>008-011>017-020>025-030>033-038>040-044>046-053-054-231300-
...NORTHERN AND CENTRAL MISSOURI...

CITY           SKY/WX    TMP DP  RH WIND       PRES   REMARKS
ST. JOSEPH     FOG       51  51 100 CALM      30.16S VSB 1/4
6HR MIN TEMP:  49; 6HR MAX TEMP:  55;

MOSBY          SUNNY     52  52 100 CALM      30.16R
WARRENSBURG    CLEAR     54  52  94 CALM      30.15S
WHITEMAN AFB   CLEAR     55  55 100 NW2       30.14R
6HR MIN TEMP:  54; 6HR MAX TEMP:  60;

CLINTON        CLEAR     54  54 100 CALM      30.15S
SEDALIA        CLEAR     56  56 100 CALM      30.15S
6HR MIN TEMP:  56; 6HR MAX TEMP:  61;

WARSAW         NOT AVBL
CHILLICOTHE      N/A     53  52  96 CALM      30.16R
6HR MIN TEMP:  52; 6HR MAX TEMP:  56;

KIRKSVILLE     CLEAR     53  32  44 NW3       30.14S
6HR MIN TEMP:  52; 6HR MAX TEMP:  56;


$$

MOZ041-047>049-056>058-063>065-088>090-097-231300-
...EASTERN AND SOUTHERN MISSOURI...

CITY           SKY/WX    TMP DP  RH WIND       PRES   REMARKS
ST. LOUIS INTL PTCLDY    61  56  83 W3        30.10S
6HR MIN TEMP:  59; 6HR MAX TEMP:  66;

SPIRIT OF STL  PTCLDY    57  56  96 SW3       30.10R
COLUMBIA       CLEAR     56  53  90 N5        30.13S
JEFFERSON CITY CLEAR     57  56  96 CALM      30.13R
ROLLA          CLEAR     57  56  96 CALM      30.14R
OSAGE BEACH    CLEAR     56  55  97 CALM      30.14R
SPRINGFIELD    PTCLDY    61  57  87 NE7       30.13R
BRANSON        CLOUDY    68  61  77 CALM      30.13R
JOPLIN         CLEAR     61  60  97 NE6       30.13R
WEST PLAINS    CLOUDY    63  58  83 NE6       30.13R

$$

IAZ060-094-KSZ022-034>040-054-083-096-NEZ052-066-093-231300-
...KANSAS...SOUTHEAST NEBRASKA AND IOWA...

CITY           SKY/WX    TMP DP  RH WIND       PRES   REMARKS
TOPEKA         CLEAR     55  55 100 CALM      30.17S
6HR MIN TEMP:  54; 6HR MAX TEMP:  60;

MANHATTAN      CLEAR     52  52 100 CALM      30.17S
EMPORIA        CLEAR     54  53  97 CALM      30.17S
CHANUTE        CLEAR     60  54  80 NE7       30.16R
WICHITA        PTCLDY    60  54  80 NE7       30.16S
OMAHA          CLEAR     59  54  83 CALM      30.16S
LINCOLN        CLEAR     54  52  93 CALM      30.18S
FALLS CITY     CLEAR     51  50  96 NW5       30.15S
LAMONI         CLEAR     53  50  89 NW5       30.15S
DES MOINES     PTCLDY    55  53  93 CALM      30.14R

$$





USA.gov is the U.S. government's official web portal to all federal, state and local government web resources and services.